Everett-Stewart Regional Airp, TN

3:19 PM CST on November 17, 2019 (GMT -0600)
Everett-Stewart

Weather History for KUCY - October, 2019

Change the Weather History Date:

Monday, October 21, 2019

  Actual Average (WUND) Record (WUND)
Temperature  
Mean Temperature 63 °F -  
Max Temperature 69 °F - - (-1)
Min Temperature 55 °F - - (-1)
Degree Days  
Heating Degree Days 2    
Growing Degree Days 13 (Base 50)    
Moisture  
Dew Point 61 °F    
Average Humidity 88    
Maximum Humidity 100    
Minimum Humidity 78    
Precipitation  
Precipitation 0.46 in - - ()
Sea Level Pressure  
Sea Level Pressure 29.73 in    
Wind  
Wind Speed 12 mph (South)    
Max Wind Speed 28 mph    
Max Gust Speed 36 mph    
Visibility 10 miles    
Events      
Averages and records for this station are not official NWS values.
T = Trace of Precipitation, MM = Missing Value Source: NWS Daily Summary

Daily Weather History Graph

Daily Weather History Graph

Search for Another Location

Airport or City:

Astronomy

Oct. 21, 2019 Rise Set
Actual Time 7:08 AM CDT 6:12 PM CDT
Civil Twilight 6:42 AM CDT 6:38 PM CDT
Nautical Twilight 6:12 AM CDT 7:08 PM CDT
Astronomical Twilight 5:42 AM CDT 7:38 PM CDT
Moon No Moon Rise 2:20 PM CDT (10/21)
Length of Visible Light 11h 56m
Length of Day
11h 03m
Waning Gibbous, 48% of the Moon is Illuminated
Oct 21
Waning Gibbous
Oct 27
New
Nov 4
First Quarter
Nov 12
Full
Nov 19
Last Quarter

Hourly Weather History & Observations

Time (CDT) Temp. Dew Point Humidity Pressure Visibility Wind Dir Wind Speed Gust Speed Precip Events Conditions
12:15 AM 66.2 °F 59.0 °F 78% 29.77 in 10.0 mi SE 13.8 mph - N/A   Overcast
12:35 AM 66.2 °F 59.0 °F 78% 29.75 in 10.0 mi SSE 12.7 mph - N/A   Unknown
12:55 AM 66.2 °F 59.0 °F 78% 29.74 in 10.0 mi SE 10.4 mph - N/A   Unknown
1:15 AM 66.2 °F 59.0 °F 78% 29.73 in 10.0 mi SSE 13.8 mph - N/A   Unknown
1:35 AM 66.2 °F 59.0 °F 78% 29.74 in 10.0 mi SSE 10.4 mph - N/A   Unknown
1:55 AM 66.2 °F 60.8 °F 83% 29.72 in 10.0 mi SSE 10.4 mph - N/A   Overcast
2:15 AM 66.2 °F 60.8 °F 83% 29.72 in 6.0 mi SSE 13.8 mph - N/A   Haze
2:35 AM 64.4 °F 60.8 °F 88% 29.71 in 10.0 mi SSE 10.4 mph - N/A   Mostly Cloudy
2:55 AM 64.4 °F 60.8 °F 88% 29.70 in 10.0 mi SSE 10.4 mph - 0.02 in   Mostly Cloudy
3:15 AM 66.2 °F 60.8 °F 83% 29.69 in 10.0 mi SSE 11.5 mph - N/A   Mostly Cloudy
3:35 AM 66.2 °F 60.8 °F 83% 29.68 in 10.0 mi SSE 11.5 mph - N/A   Overcast
3:55 AM 66.2 °F 62.6 °F 88% 29.66 in 10.0 mi South 15.0 mph - N/A   Mostly Cloudy
4:15 AM 66.2 °F 62.6 °F 88% 29.66 in 10.0 mi SSE 15.0 mph - N/A   Mostly Cloudy
4:35 AM 68.0 °F 62.6 °F 83% 29.65 in 10.0 mi South 15.0 mph 21.9 mph N/A   Overcast
4:55 AM 68.0 °F 64.4 °F 88% 29.64 in 10.0 mi South 17.3 mph 23.0 mph N/A   Overcast
5:15 AM 68.0 °F 64.4 °F 88% 29.66 in 10.0 mi South 16.1 mph - N/A   Overcast
5:35 AM 69.8 °F 64.4 °F 83% 29.68 in 10.0 mi South 18.4 mph - N/A   Overcast
5:55 AM 69.8 °F 64.4 °F 83% 29.68 in 10.0 mi South 16.1 mph 25.3 mph N/A   Overcast
6:15 AM 68.0 °F 66.2 °F 94% 29.68 in 9.0 mi South 11.5 mph 18.4 mph N/A   Overcast
6:35 AM 68.0 °F 66.2 °F 94% 29.66 in 10.0 mi South 13.8 mph - N/A   Overcast
6:55 AM 68.0 °F 66.2 °F 94% 29.68 in 5.0 mi SSW 6.9 mph 15.0 mph 0.04 in   Overcast
7:15 AM 68.0 °F 66.2 °F 94% 29.67 in 9.0 mi SSW 4.6 mph - N/A   Overcast
7:35 AM 68.0 °F 66.2 °F 94% 29.66 in 10.0 mi South 9.2 mph - N/A   Overcast
7:55 AM 64.4 °F 62.6 °F 94% 29.72 in 2.0 mi SW 11.5 mph 21.9 mph 0.34 in   Mostly Cloudy
8:15 AM 64.4 °F 62.6 °F 94% 29.71 in 2.5 mi SSW 4.6 mph 17.3 mph N/A   Mostly Cloudy
8:35 AM 64.4 °F 62.6 °F 94% 29.72 in 10.0 mi South 4.6 mph - N/A   Scattered Clouds
8:55 AM 64.4 °F 62.6 °F 94% 29.72 in 10.0 mi South 8.1 mph - 0.03 in   Clear
9:15 AM 64.4 °F 64.4 °F 100% 29.69 in 10.0 mi SSE 10.4 mph - N/A   Clear
9:35 AM 66.2 °F 64.4 °F 94% 29.69 in 10.0 mi South 17.3 mph - N/A   Clear
9:55 AM 66.2 °F 64.4 °F 94% 29.72 in 10.0 mi South 13.8 mph - 0.01 in   Clear
10:15 AM 66.2 °F 64.4 °F 94% 29.74 in 8.0 mi SSW 15.0 mph 21.9 mph N/A   Scattered Clouds
10:35 AM 64.4 °F 62.6 °F 94% 29.69 in 10.0 mi South 13.8 mph 20.7 mph N/A   Partly Cloudy
10:55 AM 64.4 °F 62.6 °F 94% 29.68 in 9.0 mi SSE 17.3 mph 26.5 mph 0.01 in   Clear
11:15 AM 64.4 °F 62.6 °F 94% 29.70 in 10.0 mi South 15.0 mph 25.3 mph N/A   Clear
11:35 AM 64.4 °F 60.8 °F 88% 29.71 in 10.0 mi South 15.0 mph 32.2 mph N/A   Clear
11:55 AM 64.4 °F 60.8 °F 88% 29.71 in 10.0 mi South 18.4 mph - N/A   Clear
12:15 PM 64.4 °F 60.8 °F 88% 29.72 in 10.0 mi South 13.8 mph 29.9 mph N/A   Partly Cloudy
12:35 PM 64.4 °F 60.8 °F 88% 29.65 in 6.0 mi SSE 27.6 mph 35.7 mph N/A   Partly Cloudy
12:55 PM 64.4 °F 60.8 °F 88% 29.68 in 10.0 mi South 13.8 mph 32.2 mph 0.01 in   Clear
1:15 PM 64.4 °F 60.8 °F 88% 29.72 in 10.0 mi SSW 11.5 mph 18.4 mph N/A   Scattered Clouds
1:35 PM 66.2 °F 60.8 °F 83% 29.71 in 10.0 mi SSW 9.2 mph 19.6 mph N/A   Scattered Clouds
1:55 PM 66.2 °F 60.8 °F 83% 29.72 in 10.0 mi SSW 11.5 mph 17.3 mph N/A   Mostly Cloudy
2:15 PM 66.2 °F 60.8 °F 83% 29.72 in 10.0 mi SSW 12.7 mph 23.0 mph N/A   Overcast
2:35 PM 64.4 °F 60.8 °F 88% 29.72 in 10.0 mi SSW 8.1 mph 18.4 mph N/A   Overcast
2:55 PM 66.2 °F 60.8 °F 83% 29.72 in 10.0 mi SSW 10.4 mph 19.6 mph N/A   Overcast
3:15 PM 64.4 °F 60.8 °F 88% 29.72 in 10.0 mi SSW 13.8 mph 23.0 mph N/A   Overcast
3:35 PM 66.2 °F 60.8 °F 83% 29.73 in 10.0 mi SSW 11.5 mph 21.9 mph N/A   Overcast
3:55 PM 66.2 °F 60.8 °F 83% 29.73 in 10.0 mi SSW 13.8 mph - N/A   Mostly Cloudy
4:15 PM 66.2 °F 60.8 °F 83% 29.73 in 10.0 mi SSW 11.5 mph 18.4 mph N/A   Mostly Cloudy
4:35 PM 66.2 °F 60.8 °F 83% 29.73 in 10.0 mi SSW 16.1 mph 23.0 mph N/A   Scattered Clouds
4:55 PM 66.2 °F 60.8 °F 83% 29.73 in 10.0 mi SSW 13.8 mph - N/A   Partly Cloudy
5:15 PM 66.2 °F 60.8 °F 83% 29.73 in 10.0 mi SSW 10.4 mph 17.3 mph N/A   Scattered Clouds
5:35 PM 66.2 °F 60.8 °F 83% 29.74 in 10.0 mi SSW 10.4 mph 18.4 mph N/A   Mostly Cloudy
5:55 PM 64.4 °F 60.8 °F 88% 29.75 in 10.0 mi SSW 6.9 mph 13.8 mph N/A   Mostly Cloudy
6:15 PM 64.4 °F 60.8 °F 88% 29.75 in 10.0 mi SSW 8.1 mph 15.0 mph N/A   Overcast
6:35 PM 64.4 °F 60.8 °F 88% 29.75 in 10.0 mi South 9.2 mph - N/A   Overcast
6:55 PM 62.6 °F 59.0 °F 88% 29.76 in 10.0 mi South 12.7 mph - N/A   Mostly Cloudy
7:15 PM 62.6 °F 59.0 °F 88% 29.76 in 10.0 mi South 10.4 mph 17.3 mph N/A   Mostly Cloudy
7:55 PM 60.8 °F 59.0 °F 94% 29.77 in 10.0 mi South 10.4 mph - N/A   Mostly Cloudy
8:15 PM 60.8 °F 59.0 °F 94% 29.78 in 10.0 mi South 10.4 mph - N/A   Mostly Cloudy
8:35 PM 60.8 °F 59.0 °F 94% 29.79 in 10.0 mi South 12.7 mph - N/A   Partly Cloudy
8:55 PM 60.8 °F 59.0 °F 94% 29.80 in 10.0 mi SSW 6.9 mph 15.0 mph N/A   Clear
9:15 PM 60.8 °F 59.0 °F 94% 29.81 in 10.0 mi SSW 9.2 mph 16.1 mph N/A   Partly Cloudy
9:35 PM 60.8 °F 59.0 °F 94% 29.82 in 10.0 mi SSW 9.2 mph - N/A   Clear
9:55 PM 60.8 °F 59.0 °F 94% 29.84 in 10.0 mi SSW 8.1 mph - N/A   Clear
10:15 PM 60.8 °F 59.0 °F 94% 29.85 in 10.0 mi SW 10.4 mph 17.3 mph N/A   Clear
10:55 PM 60.8 °F 57.2 °F 88% 29.88 in 10.0 mi WSW 6.9 mph 13.8 mph N/A   Clear
11:15 PM 59.0 °F 57.2 °F 94% 29.88 in 10.0 mi WSW 5.8 mph - N/A   Clear
11:35 PM 57.2 °F 55.4 °F 94% 29.88 in 10.0 mi SW 4.6 mph - N/A   Clear
11:55 PM 55.4 °F 53.6 °F 94% 29.88 in 10.0 mi SW 4.6 mph - N/A   Clear